QPF
0.00 0.00 0.00 0.00 0.00 0.00 0.00 0.00 0.00 0.00 0.00 0.00 0.00 0.00 0.00 0.00 0.00 0.00 0.00 0.00 0.00 0.00 0.00 0.00 0.00 0.00 0.00 0.00 0.00 0.00 0.00 0.01 0.01 0.02 0.01 0.01 0.02 0.02 0.02 0.02 0.02 0.01 0.01 0.02 0.02 0.02 0.03 0.02 0.03
0.00 0.00 0.00 0.00 0.00 0.00 0.00 0.00 0.00 0.00 0.00 0.00 0.00 0.00 0.00 0.00 0.00 0.00 0.00 0.00 0.00 0.00 0.00 0.00 0.00 0.00 0.00 0.00 0.00 0.00 0.00 0.00 0.01 0.01 0.01 0.01 0.01 0.02 0.01 0.01 0.02 0.02 0.02 0.01 0.01 0.01 0.01 0.01 0.02
0.00 0.00 0.00 0.00 0.00 0.00 0.00 0.00 0.00 0.00 0.00 0.00 0.00 0.00 0.00 0.00 0.00 0.00 0.00 0.00 0.00 0.00 0.00 0.00 0.00 0.00 0.00 0.00 0.00 0.00 0.00 0.00 0.01 0.00 0.01 0.01 0.01 0.01 0.01 0.01 0.01 0.01 0.01 0.00 0.00 0.01 0.01 0.01 0.01
0.00 0.00 0.00 0.00 0.00 0.00 0.00 0.00 0.00 0.00 0.00 0.00 0.00 0.00 0.00 0.00 0.00 0.00 0.00 0.00 0.00 0.00 0.00 0.00 0.00 0.00 0.00 0.00 0.00 0.00 0.00 0.00 0.01 0.00 0.00 0.00 0.01 0.01 0.02 0.01 0.01 0.01 0.01 0.01 0.01 0.00 0.00 0.00 0.01
0.00 0.00 0.00 0.00 0.00 0.00 0.00 0.00 0.00 0.00 0.00 0.00 0.00 0.00 0.00 0.00 0.00 0.00 0.00 0.00 0.00 0.00 0.00 0.00 0.00 0.00 0.00 0.00 0.00 0.00 0.00 0.00 0.01 0.01 0.00 0.00 0.01 0.01 0.01 0.02 0.02 0.01 0.01 0.01 0.01 0.01 0.01 0.00 0.00
0.00 0.00 0.00 0.00 0.00 0.00 0.00 0.00 0.00 0.00 0.00 0.00 0.00 0.00 0.00 0.00 0.00 0.00 0.00 0.00 0.00 0.00 0.00 0.00 0.00 0.00 0.00 0.00 0.00 0.00 0.00 0.00 0.01 0.01 0.01 0.01 0.01 0.00 0.00 0.01 0.01 0.01 0.01 0.01 0.01 0.01 0.01 0.00 0.00
0.00 0.00 0.00 0.00 0.00 0.00 0.00 0.00 0.00 0.00 0.00 0.00 0.00 0.00 0.00 0.00 0.00 0.00 0.00 0.00 0.00 0.00 0.00 0.00 0.00 0.00 0.00 0.00 0.00 0.00 0.00 0.00 0.01 0.01 0.02 0.01 0.00 0.00 0.00 0.00 0.00 0.00 0.00 0.00 0.00 0.01 0.01 0.00 0.00
0.00 0.00 0.00 0.00 0.00 0.00 0.00 0.00 0.00 0.00 0.00 0.00 0.00 0.00 0.00 0.00 0.00 0.00 0.00 0.00 0.00 0.00 0.00 0.00 0.00 0.01 0.01 0.01 0.00 0.00 0.00 0.00 0.00 0.00 0.00 0.01 0.00 0.00 0.00 0.00 0.00 0.00 0.00 0.00 0.00 0.00 0.00 0.00 0.00
0.00 0.00 0.00 0.00 0.00 0.00 0.00 0.00 0.00 0.00 0.00 0.00 0.00 0.00 0.00 0.00 0.00 0.00 0.00 0.00 0.00 0.00 0.00 0.00 0.00 0.01 0.01 0.01 0.01 0.00 0.00 0.00 0.00 0.00 0.00 0.00 0.00 0.00 0.00 0.00 0.00 0.00 0.00 0.00 0.00 0.00 0.00 0.00 0.00
0.00 0.00 0.00 0.00 0.00 0.00 0.00 0.00 0.00 0.00 0.00 0.00 0.00 0.00 0.00 0.00 0.00 0.00 0.00 0.00 0.00 0.00 0.00 0.00 0.00 0.01 0.01 0.01 0.01 0.01 0.01 0.00 0.00 0.00 0.00 0.00 0.00 0.00 0.00 0.00 0.00 0.00 0.00 0.00 0.00 0.00 0.00 0.00 0.01
0.00 0.00 0.00 0.00 0.00 0.00 0.00 0.00 0.00 0.00 0.00 0.00 0.00 0.00 0.00 0.00 0.00 0.00 0.00 0.00 0.00 0.00 0.00 0.00 0.01 0.01 0.01 0.01 0.01 0.01 0.01 0.01 0.01 0.01 0.01 0.00 0.00 0.00 0.00 0.00 0.00 0.00 0.00 0.00 0.00 0.00 0.00 0.00 0.01
0.00 0.00 0.00 0.00 0.00 0.00 0.00 0.00 0.00 0.00 0.00 0.00 0.00 0.00 0.00 0.00 0.00 0.00 0.00 0.00 0.00 0.00 0.00 0.00 0.01 0.01 0.01 0.01 0.01 0.01 0.00 0.01 0.01 0.01 0.01 0.01 0.01 0.00 0.00 0.00 0.00 0.00 0.00 0.00 0.00 0.00 0.00 0.00 0.00
0.00 0.00 0.00 0.00 0.00 0.00 0.00 0.00 0.00 0.00 0.00 0.00 0.00 0.00 0.00 0.00 0.00 0.00 0.00 0.00 0.00 0.00 0.00 0.00 0.01 0.01 0.01 0.01 0.01 0.00 0.00 0.00 0.00 0.01 0.01 0.01 0.01 0.01 0.00 0.00 0.00 0.00 0.00 0.00 0.00 0.00 0.00 0.00 0.00
0.00 0.00 0.00 0.00 0.00 0.00 0.00 0.00 0.00 0.00 0.00 0.00 0.00 0.00 0.00 0.00 0.00 0.00 0.00 0.00 0.00 0.00 0.00 0.00 0.01 0.01 0.01 0.01 0.00 0.00 0.00 0.00 0.00 0.00 0.01 0.01 0.02 0.02 0.01 0.00 0.00 0.01 0.01 0.00 0.00 0.00 0.00 0.00 0.00
0.00 0.00 0.00 0.00 0.00 0.00 0.00 0.00 0.00 0.00 0.00 0.00 0.00 0.00 0.00 0.00 0.00 0.00 0.00 0.00 0.00 0.00 0.00 0.00 0.01 0.01 0.01 0.01 0.00 0.00 0.00 0.00 0.00 0.00 0.00 0.00 0.01 0.02 0.02 0.00 0.00 0.01 0.01 0.01 0.00 0.00 0.01 0.01 0.01
0.00 0.00 0.00 0.00 0.00 0.00 0.00 0.00 0.00 0.00 0.00 0.00 0.00 0.00 0.00 0.00 0.00 0.00 0.00 0.00 0.00 0.00 0.00 0.01 0.01 0.01 0.01 0.01 0.00 0.00 0.00 0.00 0.00 0.00 0.00 0.00 0.00 0.01 0.02 0.01 0.00 0.00 0.01 0.01 0.02 0.01 0.01 0.01 0.01
0.00 0.00 0.00 0.00 0.00 0.00 0.00 0.00 0.00 0.00 0.00 0.00 0.00 0.00 0.00 0.00 0.00 0.00 0.00 0.00 0.00 0.00 0.00 0.00 0.01 0.01 0.01 0.01 0.01 0.00 0.00 0.00 0.00 0.00 0.00 0.00 0.00 0.00 0.01 0.01 0.01 0.01 0.00 0.00 0.01 0.01 0.01 0.01 0.01
0.00 0.00 0.00 0.00 0.00 0.00 0.00 0.00 0.00 0.00 0.00 0.00 0.00 0.00 0.00 0.00 0.00 0.00 0.00 0.00 0.00 0.00 0.00 0.00 0.01 0.01 0.01 0.01 0.01 0.00 0.00 0.00 0.00 0.00 0.00 0.00 0.00 0.00 0.00 0.01 0.01 0.01 0.01 0.00 0.00 0.00 0.00 0.00 0.00
0.00 0.00 0.00 0.00 0.00 0.00 0.00 0.00 0.00 0.00 0.00 0.00 0.00 0.00 0.00 0.00 0.00 0.00 0.00 0.00 0.00 0.00 0.00 0.00 0.00 0.01 0.01 0.01 0.01 0.00 0.00 0.00 0.00 0.00 0.00 0.00 0.00 0.00 0.00 0.00 0.01 0.01 0.00 0.00 0.00 0.00 0.00 0.00 0.00
0.00 0.00 0.00 0.00 0.00 0.00 0.00 0.00 0.00 0.00 0.00 0.00 0.00 0.00 0.00 0.00 0.00 0.00 0.00 0.00 0.00 0.00 0.00 0.00 0.00 0.01 0.01 0.00 0.00 0.00 0.00 0.00 0.00 0.00 0.00 0.00 0.00 0.00 0.00 0.00 0.00 0.00 0.00 0.00 0.00 0.00 0.00 0.00 0.00
0.00 0.00 0.00 0.00 0.00 0.00 0.00 0.00 0.00 0.00 0.00 0.00 0.00 0.00 0.00 0.00 0.00 0.00 0.00 0.00 0.00 0.00 0.00 0.00 0.00 0.00 0.01 0.01 0.00 0.00 0.00 0.00 0.00 0.00 0.00 0.00 0.00 0.00 0.00 0.00 0.00 0.00 0.00 0.00 0.00 0.00 0.00 0.00 0.00
0.00 0.00 0.00 0.00 0.00 0.00 0.00 0.00 0.00 0.00 0.00 0.00 0.00 0.00 0.00 0.00 0.00 0.00 0.00 0.00 0.00 0.00 0.00 0.00 0.00 0.01 0.01 0.01 0.00 0.00 0.00 0.00 0.00 0.00 0.00 0.00 0.00 0.00 0.00 0.00 0.00 0.00 0.00 0.00 0.00 0.00 0.00 0.00 0.00
0.00 0.00 0.00 0.00 0.00 0.00 0.00 0.00 0.00 0.00 0.00 0.00 0.00 0.00 0.00 0.00 0.00 0.00 0.00 0.00 0.00 0.00 0.00 0.01 0.01 0.01 0.01 0.01 0.00 0.00 0.00 0.00 0.00 0.00 0.00 0.00 0.00 0.00 0.00 0.00 0.00 0.00 0.00 0.00 0.00 0.00 0.00 0.00 0.00
0.00 0.00 0.00 0.00 0.00 0.00 0.00 0.00 0.00 0.00 0.00 0.00 0.00 0.00 0.00 0.00 0.00 0.00 0.00 0.00 0.00 0.00 0.00 0.01 0.01 0.01 0.01 0.01 0.00 0.00 0.00 0.00 0.00 0.00 0.00 0.00 0.00 0.00 0.00 0.00 0.00 0.00 0.00 0.00 0.00 0.00 0.00 0.00 0.00
0.01 0.01 0.01 0.01 0.01 0.00 0.00 0.00 0.00 0.00 0.00 0.00 0.00 0.00 0.00 0.00 0.00 0.00 0.00 0.00 0.00 0.00 0.00 0.02 0.03 0.01 0.01 0.01 0.01 0.00 0.00 0.00 0.00 0.00 0.00 0.00 0.00 0.00 0.00 0.00 0.00 0.00 0.00 0.00 0.00 0.00 0.00 0.00 0.00
0.01 0.01 0.01 0.01 0.00 0.00 0.00 0.00 0.00 0.00 0.00 0.00 0.00 0.00 0.00 0.00 0.00 0.00 0.00 0.00 0.00 0.00 0.01 0.03 0.04 0.03 0.01 0.01 0.01 0.00 0.00 0.00 0.00 0.00 0.00 0.00 0.00 0.00 0.00 0.00 0.00 0.00 0.00 0.00 0.00 0.00 0.00 0.00 0.00
0.01 0.01 0.01 0.01 0.01 0.00 0.00 0.00 0.00 0.00 0.00 0.00 0.00 0.00 0.00 0.00 0.00 0.00 0.00 0.00 0.00 0.00 0.01 0.03 0.04 0.05 0.02 0.01 0.01 0.00 0.00 0.00 0.00 0.00 0.00 0.00 0.00 0.00 0.00 0.00 0.00 0.00 0.00 0.00 0.00 0.00 0.00 0.00 0.00
0.01 0.01 0.01 0.02 0.01 0.00 0.00 0.00 0.00 0.00 0.00 0.00 0.00 0.00 0.00 0.00 0.00 0.00 0.00 0.00 0.00 0.00 0.00 0.03 0.04 0.05 0.04 0.02 0.02 0.00 0.00 0.00 0.00 0.00 0.00 0.00 0.00 0.00 0.00 0.00 0.00 0.00 0.00 0.00 0.00 0.00 0.00 0.00 0.00
0.01 0.02 0.01 0.01 0.01 0.00 0.00 0.00 0.00 0.00 0.00 0.00 0.00 0.00 0.00 0.00 0.00 0.00 0.00 0.00 0.00 0.00 0.00 0.03 0.04 0.04 0.05 0.03 0.02 0.01 0.00 0.00 0.00 0.00 0.00 0.00 0.00 0.00 0.00 0.00 0.00 0.00 0.00 0.00 0.00 0.00 0.00 0.00 0.01
0.01 0.01 0.01 0.02 0.01 0.00 0.00 0.00 0.00 0.00 0.00 0.00 0.00 0.00 0.00 0.00 0.00 0.00 0.00 0.00 0.00 0.00 0.00 0.02 0.04 0.03 0.03 0.04 0.02 0.00 0.00 0.00 0.00 0.00 0.00 0.00 0.00 0.00 0.00 0.00 0.00 0.00 0.00 0.00 0.00 0.00 0.01 0.01 0.01
MSLP
1010.39 1010.69 1011.07 1011.46 1011.80 1012.02 1012.07 1011.96 1011.71 1011.42 1011.17 1011.10 1011.27 1011.74 1012.49 1013.45 1014.50 1015.51 1016.36 1016.98 1017.32 1017.44 1017.39 1017.27 1017.16 1017.13 1017.18 1017.29 1017.40 1017.46 1017.42 1017.25 1016.99 1016.66 1016.34 1016.06 1015.87 1015.77 1015.72 1015.70 1015.65 1015.54 1015.36 1015.10 1014.80 1014.49 1014.20 1013.94 1013.72
1010.52 1010.82 1011.17 1011.50 1011.76 1011.92 1011.95 1011.87 1011.73 1011.59 1011.54 1011.68 1012.04 1012.64 1013.44 1014.36 1015.31 1016.17 1016.85 1017.30 1017.53 1017.58 1017.52 1017.43 1017.37 1017.39 1017.47 1017.59 1017.69 1017.71 1017.63 1017.44 1017.16 1016.84 1016.53 1016.28 1016.10 1015.99 1015.93 1015.87 1015.79 1015.64 1015.43 1015.16 1014.87 1014.57 1014.29 1014.04 1013.82
1010.69 1010.97 1011.26 1011.52 1011.70 1011.80 1011.82 1011.78 1011.74 1011.77 1011.93 1012.26 1012.79 1013.50 1014.33 1015.21 1016.04 1016.74 1017.26 1017.57 1017.70 1017.69 1017.63 1017.56 1017.55 1017.60 1017.70 1017.81 1017.87 1017.86 1017.74 1017.52 1017.24 1016.94 1016.66 1016.43 1016.27 1016.15 1016.06 1015.96 1015.82 1015.63 1015.38 1015.10 1014.80 1014.52 1014.26 1014.03 1013.82
1010.87 1011.12 1011.34 1011.51 1011.62 1011.66 1011.66 1011.68 1011.75 1011.94 1012.28 1012.79 1013.46 1014.25 1015.09 1015.90 1016.61 1017.16 1017.53 1017.71 1017.76 1017.73 1017.68 1017.65 1017.68 1017.76 1017.86 1017.94 1017.96 1017.90 1017.74 1017.50 1017.23 1016.95 1016.70 1016.50 1016.35 1016.23 1016.11 1015.96 1015.76 1015.51 1015.22 1014.92 1014.63 1014.36 1014.13 1013.93 1013.73
1011.03 1011.23 1011.39 1011.48 1011.51 1011.51 1011.52 1011.58 1011.75 1012.08 1012.58 1013.23 1014.00 1014.83 1015.65 1016.39 1016.98 1017.39 1017.63 1017.73 1017.73 1017.70 1017.67 1017.69 1017.76 1017.86 1017.95 1018.00 1017.97 1017.85 1017.65 1017.40 1017.12 1016.87 1016.65 1016.49 1016.35 1016.22 1016.07 1015.87 1015.62 1015.31 1014.98 1014.66 1014.36 1014.11 1013.91 1013.73 1013.56
1011.12 1011.29 1011.39 1011.42 1011.41 1011.38 1011.40 1011.51 1011.78 1012.22 1012.83 1013.57 1014.41 1015.25 1016.02 1016.67 1017.15 1017.45 1017.60 1017.64 1017.62 1017.61 1017.63 1017.70 1017.81 1017.93 1018.01 1018.03 1017.94 1017.77 1017.53 1017.25 1016.97 1016.73 1016.54 1016.40 1016.27 1016.13 1015.96 1015.71 1015.41 1015.05 1014.69 1014.34 1014.05 1013.80 1013.62 1013.46 1013.31
1011.16 1011.30 1011.37 1011.37 1011.33 1011.30 1011.34 1011.51 1011.84 1012.36 1013.05 1013.85 1014.70 1015.52 1016.24 1016.80 1017.18 1017.40 1017.48 1017.49 1017.49 1017.51 1017.59 1017.72 1017.87 1018.00 1018.07 1018.05 1017.91 1017.69 1017.40 1017.09 1016.81 1016.58 1016.40 1016.26 1016.14 1015.99 1015.78 1015.50 1015.15 1014.77 1014.37 1014.00 1013.70 1013.46 1013.28 1013.13 1012.99
1011.16 1011.30 1011.36 1011.35 1011.32 1011.31 1011.38 1011.60 1011.99 1012.56 1013.29 1014.10 1014.94 1015.71 1016.37 1016.85 1017.16 1017.31 1017.36 1017.37 1017.39 1017.46 1017.59 1017.76 1017.95 1018.09 1018.14 1018.08 1017.91 1017.64 1017.31 1016.98 1016.68 1016.44 1016.26 1016.12 1015.99 1015.82 1015.58 1015.27 1014.89 1014.47 1014.05 1013.67 1013.35 1013.10 1012.91 1012.76 1012.62
1011.18 1011.33 1011.40 1011.42 1011.41 1011.44 1011.56 1011.82 1012.24 1012.84 1013.56 1014.36 1015.16 1015.88 1016.46 1016.88 1017.13 1017.25 1017.29 1017.31 1017.36 1017.47 1017.64 1017.85 1018.05 1018.19 1018.23 1018.14 1017.93 1017.63 1017.27 1016.92 1016.60 1016.35 1016.16 1016.00 1015.84 1015.65 1015.39 1015.05 1014.64 1014.20 1013.77 1013.37 1013.03 1012.76 1012.55 1012.38 1012.21
1011.25 1011.44 1011.55 1011.61 1011.65 1011.72 1011.88 1012.17 1012.61 1013.20 1013.89 1014.65 1015.38 1016.04 1016.56 1016.93 1017.15 1017.26 1017.31 1017.35 1017.42 1017.56 1017.75 1017.96 1018.16 1018.28 1018.30 1018.19 1017.95 1017.63 1017.26 1016.90 1016.57 1016.30 1016.09 1015.91 1015.72 1015.50 1015.21 1014.85 1014.43 1013.98 1013.53 1013.12 1012.76 1012.47 1012.22 1012.01 1011.80
1011.42 1011.66 1011.83 1011.94 1012.04 1012.15 1012.34 1012.64 1013.07 1013.63 1014.27 1014.95 1015.62 1016.21 1016.68 1017.01 1017.22 1017.33 1017.39 1017.45 1017.54 1017.69 1017.88 1018.07 1018.24 1018.34 1018.33 1018.20 1017.96 1017.63 1017.27 1016.90 1016.57 1016.29 1016.06 1015.85 1015.63 1015.37 1015.06 1014.69 1014.26 1013.81 1013.36 1012.94 1012.56 1012.24 1011.95 1011.68 1011.42
1011.69 1011.98 1012.21 1012.39 1012.54 1012.70 1012.91 1013.21 1013.60 1014.10 1014.67 1015.27 1015.85 1016.37 1016.79 1017.10 1017.31 1017.43 1017.52 1017.59 1017.70 1017.83 1017.99 1018.16 1018.28 1018.34 1018.30 1018.16 1017.91 1017.60 1017.26 1016.91 1016.58 1016.30 1016.04 1015.80 1015.55 1015.27 1014.94 1014.56 1014.14 1013.70 1013.26 1012.83 1012.44 1012.08 1011.75 1011.42 1011.09
1012.02 1012.37 1012.66 1012.89 1013.10 1013.30 1013.52 1013.80 1014.15 1014.57 1015.05 1015.55 1016.05 1016.50 1016.87 1017.17 1017.38 1017.52 1017.63 1017.73 1017.84 1017.96 1018.08 1018.20 1018.27 1018.28 1018.21 1018.06 1017.83 1017.54 1017.22 1016.89 1016.59 1016.30 1016.03 1015.76 1015.49 1015.18 1014.84 1014.46 1014.05 1013.63 1013.21 1012.79 1012.39 1012.00 1011.61 1011.22 1010.82
1012.34 1012.74 1013.09 1013.38 1013.64 1013.87 1014.11 1014.37 1014.67 1015.01 1015.39 1015.79 1016.19 1016.57 1016.90 1017.18 1017.40 1017.57 1017.71 1017.83 1017.94 1018.04 1018.13 1018.20 1018.22 1018.19 1018.10 1017.94 1017.72 1017.46 1017.17 1016.87 1016.58 1016.29 1016.01 1015.73 1015.43 1015.10 1014.76 1014.39 1014.00 1013.60 1013.19 1012.79 1012.38 1011.96 1011.53 1011.08 1010.60
1012.58 1013.02 1013.42 1013.78 1014.09 1014.36 1014.62 1014.86 1015.11 1015.38 1015.67 1015.97 1016.28 1016.58 1016.87 1017.13 1017.36 1017.56 1017.73 1017.88 1018.00 1018.09 1018.16 1018.19 1018.18 1018.12 1018.01 1017.84 1017.64 1017.40 1017.14 1016.86 1016.58 1016.29 1015.99 1015.68 1015.36 1015.02 1014.67 1014.31 1013.94 1013.56 1013.18 1012.79 1012.38 1011.94 1011.46 1010.95 1010.40
1012.70 1013.16 1013.61 1014.02 1014.39 1014.71 1014.99 1015.24 1015.47 1015.68 1015.88 1016.09 1016.31 1016.54 1016.78 1017.03 1017.26 1017.49 1017.70 1017.88 1018.02 1018.13 1018.20 1018.22 1018.18 1018.11 1017.98 1017.82 1017.62 1017.40 1017.15 1016.88 1016.60 1016.29 1015.97 1015.64 1015.29 1014.94 1014.58 1014.23 1013.87 1013.52 1013.15 1012.77 1012.35 1011.88 1011.36 1010.80 1010.19
1012.67 1013.15 1013.63 1014.09 1014.52 1014.90 1015.23 1015.50 1015.72 1015.89 1016.04 1016.17 1016.32 1016.48 1016.68 1016.90 1017.14 1017.39 1017.63 1017.86 1018.04 1018.18 1018.27 1018.30 1018.27 1018.19 1018.07 1017.91 1017.71 1017.49 1017.23 1016.95 1016.65 1016.32 1015.97 1015.60 1015.22 1014.85 1014.48 1014.12 1013.78 1013.43 1013.07 1012.68 1012.25 1011.76 1011.21 1010.59 1009.93
1012.53 1013.01 1013.51 1014.02 1014.51 1014.96 1015.34 1015.64 1015.87 1016.03 1016.14 1016.22 1016.31 1016.42 1016.57 1016.77 1017.01 1017.28 1017.56 1017.83 1018.07 1018.26 1018.39 1018.45 1018.45 1018.38 1018.26 1018.10 1017.90 1017.66 1017.38 1017.08 1016.73 1016.36 1015.97 1015.57 1015.16 1014.75 1014.37 1014.00 1013.65 1013.29 1012.93 1012.53 1012.07 1011.55 1010.96 1010.31 1009.60
1012.36 1012.82 1013.33 1013.87 1014.41 1014.90 1015.34 1015.69 1015.94 1016.10 1016.19 1016.24 1016.29 1016.36 1016.48 1016.66 1016.90 1017.19 1017.51 1017.83 1018.12 1018.37 1018.55 1018.66 1018.69 1018.64 1018.54 1018.37 1018.15 1017.89 1017.58 1017.23 1016.84 1016.42 1015.99 1015.54 1015.09 1014.66 1014.24 1013.86 1013.48 1013.11 1012.72 1012.29 1011.80 1011.25 1010.63 1009.94 1009.20
1012.23 1012.67 1013.17 1013.72 1014.27 1014.80 1015.27 1015.64 1015.92 1016.09 1016.18 1016.22 1016.25 1016.31 1016.41 1016.58 1016.83 1017.14 1017.49 1017.85 1018.19 1018.49 1018.73 1018.88 1018.95 1018.93 1018.83 1018.66 1018.42 1018.13 1017.78 1017.38 1016.95 1016.48 1016.00 1015.51 1015.03 1014.56 1014.11 1013.69 1013.28 1012.87 1012.44 1011.97 1011.45 1010.86 1010.21 1009.49 1008.73
1012.25 1012.65 1013.11 1013.63 1014.17 1014.69 1015.16 1015.54 1015.82 1016.00 1016.10 1016.14 1016.18 1016.24 1016.35 1016.53 1016.79 1017.12 1017.50 1017.89 1018.27 1018.62 1018.89 1019.08 1019.18 1019.18 1019.08 1018.91 1018.65 1018.33 1017.94 1017.51 1017.03 1016.53 1016.01 1015.48 1014.96 1014.46 1013.97 1013.51 1013.05 1012.59 1012.11 1011.59 1011.02 1010.40 1009.72 1008.99 1008.23
1012.46 1012.80 1013.21 1013.67 1014.15 1014.61 1015.03 1015.37 1015.63 1015.81 1015.92 1015.98 1016.05 1016.13 1016.28 1016.49 1016.78 1017.13 1017.53 1017.95 1018.35 1018.72 1019.01 1019.22 1019.33 1019.34 1019.25 1019.07 1018.80 1018.46 1018.05 1017.59 1017.08 1016.55 1016.00 1015.45 1014.89 1014.35 1013.83 1013.31 1012.79 1012.27 1011.73 1011.16 1010.55 1009.90 1009.21 1008.49 1007.74
1012.85 1013.14 1013.47 1013.84 1014.21 1014.57 1014.89 1015.16 1015.37 1015.52 1015.64 1015.74 1015.85 1016.00 1016.20 1016.47 1016.80 1017.19 1017.60 1018.03 1018.43 1018.79 1019.09 1019.29 1019.40 1019.41 1019.32 1019.14 1018.87 1018.52 1018.10 1017.62 1017.11 1016.56 1015.99 1015.41 1014.83 1014.25 1013.67 1013.10 1012.52 1011.93 1011.32 1010.69 1010.05 1009.38 1008.69 1008.00 1007.29
1013.38 1013.62 1013.86 1014.11 1014.34 1014.55 1014.74 1014.90 1015.03 1015.15 1015.27 1015.41 1015.59 1015.82 1016.11 1016.46 1016.85 1017.27 1017.71 1018.13 1018.52 1018.86 1019.12 1019.31 1019.40 1019.40 1019.31 1019.13 1018.86 1018.52 1018.11 1017.64 1017.12 1016.56 1015.98 1015.38 1014.77 1014.14 1013.51 1012.87 1012.22 1011.56 1010.89 1010.22 1009.54 1008.87 1008.20 1007.54 1006.90
1013.97 1014.17 1014.32 1014.44 1014.51 1014.56 1014.58 1014.60 1014.64 1014.71 1014.84 1015.03 1015.30 1015.63 1016.03 1016.47 1016.94 1017.41 1017.86 1018.27 1018.63 1018.93 1019.15 1019.30 1019.37 1019.35 1019.26 1019.09 1018.84 1018.51 1018.11 1017.66 1017.14 1016.58 1015.98 1015.36 1014.70 1014.03 1013.34 1012.63 1011.91 1011.18 1010.46 1009.74 1009.05 1008.38 1007.74 1007.14 1006.58
1014.54 1014.70 1014.78 1014.76 1014.68 1014.55 1014.41 1014.29 1014.22 1014.25 1014.39 1014.64 1015.00 1015.45 1015.96 1016.51 1017.06 1017.58 1018.04 1018.45 1018.77 1019.02 1019.20 1019.30 1019.34 1019.31 1019.22 1019.06 1018.83 1018.53 1018.15 1017.71 1017.20 1016.63 1016.00 1015.34 1014.63 1013.90 1013.14 1012.37 1011.58 1010.80 1010.03 1009.29 1008.58 1007.93 1007.34 1006.80 1006.31
1015.01 1015.15 1015.16 1015.03 1014.81 1014.52 1014.22 1013.97 1013.82 1013.80 1013.95 1014.27 1014.72 1015.29 1015.93 1016.58 1017.21 1017.78 1018.27 1018.65 1018.94 1019.15 1019.28 1019.34 1019.36 1019.32 1019.23 1019.09 1018.88 1018.60 1018.25 1017.80 1017.28 1016.69 1016.03 1015.31 1014.55 1013.75 1012.93 1012.09 1011.25 1010.42 1009.62 1008.87 1008.17 1007.54 1006.99 1006.51 1006.08
1015.34 1015.48 1015.43 1015.21 1014.87 1014.44 1014.02 1013.66 1013.43 1013.40 1013.57 1013.94 1014.49 1015.17 1015.92 1016.68 1017.39 1018.00 1018.50 1018.88 1019.14 1019.31 1019.40 1019.44 1019.43 1019.40 1019.32 1019.19 1019.01 1018.74 1018.39 1017.94 1017.39 1016.76 1016.04 1015.27 1014.44 1013.57 1012.69 1011.80 1010.92 1010.07 1009.26 1008.50 1007.82 1007.22 1006.70 1006.26 1005.88
1015.52 1015.65 1015.56 1015.28 1014.84 1014.32 1013.80 1013.36 1013.09 1013.05 1013.25 1013.68 1014.32 1015.10 1015.94 1016.78 1017.55 1018.21 1018.72 1019.09 1019.34 1019.48 1019.55 1019.58 1019.57 1019.54 1019.48 1019.36 1019.19 1018.93 1018.56 1018.08 1017.49 1016.80 1016.03 1015.18 1014.29 1013.37 1012.45 1011.53 1010.63 1009.77 1008.97 1008.23 1007.57 1006.99 1006.49 1006.06 1005.70
1015.56 1015.68 1015.56 1015.22 1014.72 1014.13 1013.55 1013.08 1012.79 1012.76 1012.99 1013.49 1014.20 1015.05 1015.97 1016.87 1017.69 1018.37 1018.90 1019.27 1019.51 1019.65 1019.72 1019.74 1019.74 1019.73 1019.68 1019.58 1019.40 1019.12 1018.73 1018.21 1017.56 1016.81 1015.97 1015.06 1014.12 1013.16 1012.21 1011.29 1010.40 1009.57 1008.79 1008.08 1007.43 1006.86 1006.36 1005.93 1005.55
Thickness
5709 5713 5717 5712 5699 5694 5704 5730 5750 5752 5755 5759 5761 5761 5751 5738 5736 5721 5732 5744 5743 5739 5736 5733 5733 5733 5733 5734 5734 5734 5734 5734 5734 5734 5735 5735 5735 5735 5735 5735 5735 5735 5735 5735 5735 5736 5736 5736 5735
5706 5712 5709 5701 5690 5689 5709 5732 5741 5747 5750 5753 5753 5753 5745 5731 5733 5729 5733 5738 5738 5735 5731 5729 5728 5728 5728 5728 5729 5729 5729 5729 5729 5729 5729 5730 5730 5730 5730 5730 5730 5730 5730 5731 5731 5731 5731 5731 5731
5701 5707 5697 5693 5692 5699 5717 5738 5738 5741 5746 5745 5740 5742 5737 5727 5730 5728 5731 5734 5733 5730 5725 5723 5723 5723 5723 5723 5723 5723 5723 5724 5724 5724 5724 5724 5724 5724 5724 5725 5725 5725 5725 5726 5726 5726 5726 5726 5726
5696 5693 5692 5688 5694 5714 5727 5733 5735 5733 5735 5739 5734 5725 5725 5729 5729 5727 5728 5730 5727 5723 5720 5718 5718 5718 5718 5718 5718 5718 5718 5718 5718 5718 5718 5718 5719 5719 5719 5719 5719 5720 5720 5721 5721 5721 5721 5721 5721
5689 5684 5678 5682 5695 5716 5730 5734 5732 5726 5724 5728 5729 5717 5711 5720 5725 5723 5724 5724 5722 5718 5715 5713 5712 5712 5712 5712 5712 5712 5712 5712 5712 5712 5712 5712 5713 5713 5713 5713 5714 5714 5715 5715 5715 5715 5716 5716 5716
5677 5680 5674 5679 5696 5714 5724 5730 5728 5723 5722 5724 5722 5713 5704 5714 5716 5716 5718 5718 5716 5713 5709 5707 5707 5706 5706 5706 5706 5706 5706 5706 5706 5706 5706 5706 5707 5707 5707 5708 5708 5708 5709 5709 5709 5709 5710 5710 5710
5669 5670 5673 5686 5696 5706 5719 5726 5720 5717 5715 5718 5722 5709 5700 5706 5710 5712 5712 5712 5710 5708 5705 5702 5702 5701 5700 5700 5700 5700 5700 5700 5700 5700 5700 5700 5700 5701 5701 5701 5702 5702 5702 5703 5703 5703 5704 5704 5704
5670 5669 5674 5682 5690 5700 5715 5718 5718 5713 5712 5721 5720 5706 5697 5702 5706 5706 5705 5704 5702 5701 5699 5698 5697 5696 5695 5694 5694 5694 5694 5694 5694 5694 5694 5694 5694 5695 5695 5695 5695 5696 5696 5697 5697 5697 5698 5698 5698
5665 5655 5664 5680 5687 5696 5706 5704 5705 5707 5706 5708 5709 5706 5708 5703 5701 5697 5695 5694 5693 5693 5693 5693 5692 5690 5689 5689 5688 5688 5688 5688 5688 5688 5688 5688 5688 5688 5688 5688 5689 5689 5690 5691 5691 5692 5692 5692 5692
5652 5648 5666 5681 5687 5690 5695 5696 5695 5693 5691 5692 5693 5696 5698 5695 5692 5689 5687 5686 5685 5685 5686 5686 5685 5685 5684 5683 5682 5682 5682 5682 5682 5682 5682 5683 5683 5683 5682 5682 5683 5683 5684 5684 5685 5685 5686 5686 5686
5651 5653 5667 5675 5680 5682 5684 5686 5690 5684 5681 5687 5686 5685 5686 5685 5684 5683 5683 5683 5682 5681 5680 5680 5679 5678 5678 5677 5677 5677 5676 5676 5676 5676 5676 5676 5676 5676 5676 5676 5676 5677 5677 5678 5678 5679 5679 5679 5680
5650 5656 5663 5666 5668 5670 5673 5678 5678 5678 5683 5690 5692 5687 5682 5680 5679 5680 5680 5679 5677 5675 5674 5673 5673 5672 5671 5671 5671 5671 5670 5670 5670 5670 5670 5670 5670 5669 5670 5670 5670 5670 5670 5671 5671 5671 5672 5672 5673
5641 5649 5656 5659 5659 5660 5664 5666 5669 5674 5682 5685 5685 5681 5677 5676 5676 5676 5677 5676 5673 5670 5668 5667 5667 5665 5665 5664 5664 5664 5664 5664 5664 5663 5663 5663 5663 5662 5663 5663 5663 5663 5663 5663 5663 5664 5664 5664 5665
5639 5643 5647 5650 5651 5653 5653 5656 5660 5670 5676 5675 5674 5672 5672 5672 5672 5671 5671 5670 5668 5665 5663 5661 5660 5660 5659 5658 5658 5658 5657 5657 5657 5657 5656 5656 5656 5656 5655 5655 5655 5655 5655 5655 5655 5655 5655 5656 5656
5632 5630 5635 5641 5644 5647 5644 5644 5656 5667 5670 5667 5667 5667 5667 5668 5668 5668 5667 5666 5664 5661 5658 5656 5655 5654 5653 5652 5651 5651 5651 5651 5650 5650 5649 5649 5649 5648 5648 5647 5647 5647 5647 5647 5647 5647 5647 5647 5647
5618 5615 5618 5637 5640 5640 5632 5634 5659 5666 5663 5661 5662 5662 5661 5663 5664 5664 5663 5661 5659 5656 5653 5651 5650 5648 5647 5646 5645 5645 5644 5644 5643 5643 5642 5642 5641 5641 5640 5640 5639 5639 5638 5638 5637 5637 5636 5635 5635
5604 5605 5615 5628 5637 5634 5627 5633 5654 5661 5659 5656 5657 5657 5657 5657 5659 5659 5659 5657 5655 5652 5648 5645 5644 5642 5641 5640 5639 5638 5638 5637 5636 5635 5635 5634 5634 5633 5633 5632 5631 5630 5629 5629 5628 5627 5625 5624 5624
5600 5607 5617 5621 5629 5628 5622 5629 5643 5651 5652 5651 5653 5654 5653 5653 5654 5655 5654 5652 5650 5647 5643 5640 5638 5637 5635 5634 5632 5631 5630 5630 5629 5628 5628 5627 5626 5626 5625 5624 5623 5622 5620 5619 5618 5616 5615 5614 5613
5605 5606 5610 5619 5621 5620 5618 5624 5634 5642 5644 5645 5647 5649 5650 5651 5652 5651 5649 5647 5644 5641 5638 5635 5632 5631 5629 5627 5625 5623 5622 5622 5622 5621 5621 5620 5619 5618 5617 5615 5614 5613 5611 5609 5608 5606 5604 5602 5602
5593 5593 5598 5605 5609 5609 5611 5618 5629 5638 5641 5644 5644 5645 5647 5647 5646 5645 5643 5641 5638 5636 5633 5630 5627 5625 5623 5621 5620 5618 5617 5616 5615 5615 5613 5612 5611 5610 5609 5607 5605 5604 5602 5599 5597 5595 5593 5591 5588
5583 5585 5590 5593 5596 5598 5598 5604 5622 5637 5642 5643 5644 5645 5645 5644 5641 5640 5638 5635 5632 5629 5627 5626 5622 5620 5618 5616 5613 5612 5610 5608 5607 5606 5606 5605 5604 5602 5601 5599 5597 5595 5592 5589 5587 5584 5582 5579 5577
5570 5583 5586 5584 5576 5576 5588 5580 5618 5631 5634 5637 5639 5639 5640 5640 5638 5635 5632 5629 5626 5623 5621 5619 5617 5614 5612 5610 5607 5605 5602 5601 5600 5599 5598 5598 5596 5594 5592 5590 5588 5585 5583 5580 5577 5575 5571 5568 5565
5566 5574 5575 5574 5569 5566 5577 5570 5599 5622 5624 5630 5633 5634 5634 5634 5633 5630 5627 5624 5621 5617 5614 5612 5610 5608 5606 5604 5601 5599 5596 5595 5594 5593 5591 5589 5588 5586 5584 5581 5579 5576 5573 5570 5568 5565 5562 5558 5554
5556 5558 5559 5560 5554 5545 5570 5568 5587 5610 5622 5628 5629 5628 5628 5627 5626 5624 5621 5617 5613 5609 5606 5604 5602 5601 5599 5597 5595 5593 5590 5589 5587 5585 5583 5581 5579 5577 5575 5572 5569 5566 5564 5561 5558 5555 5552 5548 5545
5543 5536 5529 5528 5527 5542 5577 5572 5585 5611 5622 5623 5622 5621 5620 5619 5617 5614 5611 5608 5605 5601 5598 5597 5595 5593 5592 5590 5588 5586 5584 5582 5580 5577 5575 5572 5570 5567 5565 5562 5559 5557 5554 5552 5549 5546 5542 5539 5535
5531 5534 5531 5530 5537 5554 5567 5566 5587 5606 5612 5614 5614 5612 5611 5609 5607 5606 5603 5600 5597 5594 5591 5589 5588 5586 5585 5583 5581 5579 5577 5574 5572 5569 5566 5564 5561 5559 5556 5553 5550 5547 5545 5542 5539 5536 5533 5529 5525
5522 5525 5540 5536 5541 5543 5555 5573 5584 5595 5597 5600 5601 5601 5599 5598 5597 5595 5594 5592 5589 5586 5584 5582 5580 5578 5577 5576 5573 5571 5569 5566 5563 5561 5558 5555 5552 5550 5547 5544 5541 5538 5536 5533 5530 5527 5523 5520 5516
5519 5527 5522 5520 5527 5540 5557 5567 5569 5577 5583 5588 5589 5588 5588 5588 5586 5585 5584 5582 5580 5578 5575 5573 5572 5570 5569 5567 5565 5563 5560 5557 5554 5551 5548 5545 5543 5540 5537 5534 5531 5529 5526 5523 5520 5517 5514 5510 5507
5504 5510 5516 5519 5528 5535 5543 5553 5571 5573 5577 5577 5578 5579 5578 5576 5575 5574 5573 5572 5571 5569 5566 5564 5562 5560 5558 5557 5556 5553 5550 5548 5545 5541 5539 5536 5533 5530 5527 5524 5522 5519 5516 5514 5510 5507 5504 5501 5497
5497 5506 5507 5508 5516 5527 5534 5538 5560 5562 5565 5566 5566 5568 5568 5567 5565 5563 5562 5561 5560 5558 5557 5554 5553 5551 5549 5547 5546 5543 5540 5537 5534 5531 5528 5525 5522 5519 5517 5514 5512 5509 5506 5503 5499 5496 5493 5490 5487